• In Italy
  • List of Countries
  • For 7 days
  • Water Temperature
  • Satellite Maps
  • Weather Map
  • Weather Widgets
  • user-avatar
    Login

    Hourly Weather Yaykarovo

    Today, 23 October, Tuesday

    Time Temperature Precipitation Wind Pressure Humidity
    00:00 -1°C° 0 mm 2 mps 725 mmHg 81%
    01:00 -1°C° 0 mm 3 mps 725 mmHg 82%
    02:00 -1°C° 0 mm 3 mps 725 mmHg 82%
    03:00 -1°C° 0 mm 3 mps 725 mmHg 82%
    04:00 -2°C° 0 mm 2 mps 724 mmHg 81%
    05:00 -2°C° 0 mm 2 mps 724 mmHg 81%
    06:00 -2°C° 0 mm 3 mps 724 mmHg 81%
    07:00 -2°C° 0 mm 3 mps 724 mmHg 81%
    08:00 0°C° 0 mm 3 mps 724 mmHg 75%
    09:00 +1°C° 0 mm 3 mps 724 mmHg 68%
    10:00 +3°C° 0 mm 3 mps 724 mmHg 62%
    11:00 +4°C° 0 mm 3 mps 723 mmHg 59%
    12:00 +5°C° 0 mm 3 mps 723 mmHg 56%
    13:00 +7°C° 0 mm 3 mps 723 mmHg 53%
    14:00 +7°C° 0 mm 3 mps 722 mmHg 56%
    15:00 +5°C° 0 mm 3 mps 722 mmHg 59%
    16:00 +5°C° 0 mm 3 mps 721 mmHg 62%
    17:00 +4°C° 0 mm 3 mps 721 mmHg 65%
    18:00 +3°C° 0 mm 3 mps 721 mmHg 68%
    19:00 +2°C° 0 mm 3 mps 721 mmHg 71%
    20:00 +2°C° 0 mm 3 mps 720 mmHg 72%
    21:00 +1°C° 0 mm 3 mps 720 mmHg 73%
    22:00 +1°C° 0 mm 3 mps 719 mmHg 75%
    23:00 +1°C° 0 mm 3 mps 719 mmHg 76%

    Tomorrow, 24 October, Wednesday

    Time Temperature Precipitation Wind Pressure Humidity
    00:00 +1°C° 0 mm 3 mps 719 mmHg 78%
    01:00 +2°C° 0 mm 3 mps 718 mmHg 80%
    02:00 +2°C° 0 mm 3 mps 718 mmHg 82%
    03:00 +3°C° 0 mm 3 mps 718 mmHg 85%
    04:00 +3°C° 0 mm 4 mps 718 mmHg 88%
    05:00 +3°C° 0.1 mm 4 mps 718 mmHg 89%
    06:00 +4°C° 0.1 mm 4 mps 718 mmHg 90%
    07:00 +4°C° 0.1 mm 4 mps 718 mmHg 92%
    08:00 +5°C° 0.1 mm 4 mps 717 mmHg 89%
    09:00 +5°C° 0.1 mm 5 mps 717 mmHg 87%
    10:00 +6°C° 0.1 mm 5 mps 717 mmHg 85%
    11:00 +7°C° 0 mm 5 mps 717 mmHg 81%
    12:00 +7°C° 0 mm 5 mps 717 mmHg 78%
    13:00 +8°C° 0 mm 5 mps 717 mmHg 75%
    14:00 +8°C° 0 mm 5 mps 717 mmHg 77%
    15:00 +7°C° 0 mm 5 mps 717 mmHg 80%
    16:00 +6°C° 0 mm 5 mps 717 mmHg 82%
    17:00 +6°C° 0 mm 4 mps 717 mmHg 82%
    18:00 +5°C° 0 mm 4 mps 717 mmHg 83%
    19:00 +5°C° 0 mm 4 mps 717 mmHg 84%
    20:00 +5°C° 0 mm 3 mps 717 mmHg 84%
    21:00 +4°C° 0 mm 3 mps 717 mmHg 84%
    22:00 +4°C° 0 mm 3 mps 717 mmHg 84%
    23:00 +4°C° 0 mm 3 mps 717 mmHg 86%

    Day after tomorrow, 25 October, Thursday

    Time Temperature Precipitation Wind Pressure Humidity
    00:00 +3°C° 0 mm 3 mps 717 mmHg 87%
    01:00 +4°C° 0 mm 2 mps 717 mmHg 89%
    02:00 +4°C° 0 mm 2 mps 717 mmHg 89%
    03:00 +3°C° 0 mm 2 mps 717 mmHg 90%
    04:00 +3°C° 0 mm 2 mps 717 mmHg 90%
    05:00 +3°C° 0 mm 2 mps 717 mmHg 91%
    06:00 +3°C° 0 mm 2 mps 717 mmHg 91%
    07:00 +3°C° 0 mm 2 mps 717 mmHg 92%
    08:00 +4°C° 0 mm 2 mps 717 mmHg 86%
    09:00 +5°C° 0 mm 3 mps 717 mmHg 81%
    10:00 +7°C° 0 mm 3 mps 717 mmHg 76%
    11:00 +7°C° 0 mm 4 mps 716 mmHg 71%
    12:00 +8°C° 0 mm 4 mps 716 mmHg 65%
    13:00 +11°C° 0 mm 4 mps 716 mmHg 60%
    14:00 +10°C° 0 mm 4 mps 716 mmHg 60%
    15:00 +10°C° 0 mm 4 mps 715 mmHg 60%
    16:00 +10°C° 0 mm 3 mps 715 mmHg 60%
    17:00 +8°C° 0 mm 4 mps 715 mmHg 61%
    18:00 +8°C° 0 mm 4 mps 715 mmHg 61%
    19:00 +7°C° 0 mm 4 mps 715 mmHg 61%
    20:00 +7°C° 0 mm 4 mps 715 mmHg 62%
    21:00 +7°C° 0 mm 4 mps 715 mmHg 62%
    22:00 +6°C° 0 mm 4 mps 714 mmHg 63%
    23:00 +6°C° 0 mm 4 mps 714 mmHg 63%

    26 October, Friday

    Time Temperature Precipitation Wind Pressure Humidity
    00:00 +7°C° 0 mm 3 mps 714 mmHg 64%
    01:00 +7°C° 0 mm 3 mps 714 mmHg 64%
    02:00 +7°C° 0 mm 3 mps 713 mmHg 64%
    03:00 +7°C° 0 mm 3 mps 713 mmHg 64%
    04:00 +7°C° 0 mm 3 mps 712 mmHg 64%
    05:00 +7°C° 0 mm 3 mps 712 mmHg 64%
    06:00 +7°C° 0 mm 3 mps 711 mmHg 64%
    07:00 +7°C° 0 mm 3 mps 711 mmHg 63%
    08:00 +7°C° 0 mm 4 mps 711 mmHg 59%
    09:00 +9°C° 0 mm 5 mps 710 mmHg 55%
    10:00 +10°C° 0 mm 6 mps 710 mmHg 51%
    11:00 +11°C° 0.1 mm 6 mps 710 mmHg 51%
    12:00 +11°C° 0.1 mm 6 mps 710 mmHg 50%
    13:00 +11°C° 0.1 mm 6 mps 710 mmHg 50%
    14:00 +10°C° 0.6 mm 5 mps 710 mmHg 59%
    15:00 +11°C° 0.6 mm 4 mps 710 mmHg 67%
    16:00 +10°C° 0.6 mm 3 mps 710 mmHg 76%
    17:00 +9°C° 0 mm 3 mps 710 mmHg 80%
    18:00 +9°C° 0 mm 2 mps 711 mmHg 84%
    19:00 +8°C° 0 mm 2 mps 711 mmHg 89%
    20:00 +8°C° 0.1 mm 2 mps 711 mmHg 90%
    21:00 +8°C° 0.1 mm 2 mps 711 mmHg 91%
    22:00 +7°C° 0.1 mm 2 mps 711 mmHg 92%
    23:00 +7°C° 0.1 mm 2 mps 711 mmHg 92%

    27 October, Saturday

    Time Temperature Precipitation Wind Pressure Humidity
    00:00 +7°C° 0.1 mm 2 mps 711 mmHg 91%
    01:00 +7°C° 0.1 mm 2 mps 712 mmHg 90%
    02:00 +6°C° 0 mm 2 mps 712 mmHg 88%
    03:00 +6°C° 0 mm 2 mps 712 mmHg 86%
    04:00 +5°C° 0 mm 2 mps 712 mmHg 84%
    05:00 +5°C° 0 mm 2 mps 712 mmHg 85%
    06:00 +4°C° 0 mm 2 mps 713 mmHg 86%
    07:00 +4°C° 0 mm 2 mps 713 mmHg 86%
    08:00 +4°C° 0 mm 2 mps 713 mmHg 82%
    09:00 +4°C° 0 mm 3 mps 713 mmHg 77%
    10:00 +5°C° 0 mm 4 mps 714 mmHg 73%
    11:00 +5°C° 0 mm 4 mps 714 mmHg 70%
    12:00 +5°C° 0 mm 4 mps 714 mmHg 67%
    13:00 +5°C° 0 mm 4 mps 715 mmHg 64%
    14:00 +4°C° 0 mm 4 mps 715 mmHg 65%
    15:00 +4°C° 0 mm 4 mps 715 mmHg 65%
    16:00 +3°C° 0 mm 4 mps 715 mmHg 65%
    17:00 +3°C° 0 mm 3 mps 716 mmHg 68%
    18:00 +2°C° 0 mm 3 mps 716 mmHg 71%
    19:00 +2°C° 0 mm 3 mps 717 mmHg 74%
    20:00 +1°C° 0 mm 3 mps 717 mmHg 75%
    21:00 +1°C° 0 mm 3 mps 717 mmHg 77%
    22:00 0°C° 0 mm 3 mps 718 mmHg 78%
    23:00 0°C° 0 mm 3 mps 718 mmHg 79%

    28 October, Sunday

    Time Temperature Precipitation Wind Pressure Humidity
    00:00 0°C° 0 mm 3 mps 718 mmHg 80%
    01:00 -1°C° 0 mm 3 mps 719 mmHg 80%
    02:00 -1°C° 0 mm 3 mps 719 mmHg 82%
    03:00 -1°C° 0 mm 3 mps 720 mmHg 83%
    04:00 -1°C° 0 mm 3 mps 720 mmHg 84%
    05:00 -1°C° 0 mm 3 mps 720 mmHg 84%
    06:00 -1°C° 0 mm 3 mps 721 mmHg 84%
    07:00 -2°C° 0 mm 4 mps 721 mmHg 84%
    08:00 -1°C° 0 mm 4 mps 721 mmHg 78%
    09:00 -1°C° 0 mm 5 mps 721 mmHg 72%
    10:00 0°C° 0 mm 5 mps 721 mmHg 66%
    11:00 +1°C° 0 mm 6 mps 721 mmHg 61%
    12:00 +2°C° 0 mm 7 mps 720 mmHg 57%
    13:00 +2°C° 0 mm 7 mps 720 mmHg 52%
    14:00 +2°C° 0.6 mm 7 mps 719 mmHg 59%
    15:00 +2°C° 0.6 mm 7 mps 719 mmHg 67%
    16:00 +2°C° 0.6 mm 6 mps 719 mmHg 75%
    17:00 +2°C° 1.1 mm 7 mps 718 mmHg 77%
    18:00 +3°C° 1.1 mm 7 mps 718 mmHg 79%
    19:00 +3°C° 1.1 mm 7 mps 717 mmHg 82%
    20:00 +4°C° 0.9 mm 7 mps 717 mmHg 83%
    21:00 +4°C° 0.9 mm 7 mps 716 mmHg 85%
    22:00 +4°C° 0.9 mm 6 mps 716 mmHg 87%
    23:00 +4°C° 0.1 mm 6 mps 716 mmHg 85%

    29 October, Monday

    Time Temperature Precipitation Wind Pressure Humidity
    00:00 +4°C° 0.1 mm 7 mps 717 mmHg 84%
    01:00 +4°C° 0.1 mm 7 mps 717 mmHg 83%
    02:00 +3°C° 0 mm 7 mps 718 mmHg 81%
    03:00 +2°C° 0 mm 7 mps 719 mmHg 80%
    04:00 +2°C° 0 mm 7 mps 719 mmHg 78%
    05:00 0°C° 0 mm 7 mps 720 mmHg 78%
    06:00 -1°C° 0 mm 7 mps 720 mmHg 77%
    07:00 -1°C° 0 mm 7 mps 721 mmHg 76%
    08:00 -1°C° 0 mm 7 mps 721 mmHg 74%
    09:00 0°C° 0 mm 7 mps 722 mmHg 72%
    10:00 0°C° 0 mm 8 mps 722 mmHg 70%
    11:00 0°C° 0 mm 8 mps 723 mmHg 68%
    12:00 0°C° 0 mm 7 mps 723 mmHg 67%
    13:00 0°C° 0 mm 7 mps 724 mmHg 65%
    14:00 0°C° 0 mm 7 mps 725 mmHg 67%
    15:00 -1°C° 0 mm 6 mps 725 mmHg 69%
    16:00 0°C° 0 mm 5 mps 726 mmHg 71%
    17:00 -1°C° 0 mm 4 mps 726 mmHg 74%
    18:00 -1°C° 0 mm 4 mps 727 mmHg 77%
    19:00 -1°C° 0 mm 3 mps 728 mmHg 80%
    20:00 -1°C° 0 mm 3 mps 728 mmHg 81%
    21:00 -1°C° 0 mm 2 mps 728 mmHg 82%
    22:00 -2°C° 0 mm 2 mps 729 mmHg 84%
    23:00 -1°C° 0 mm 2 mps 729 mmHg 82%
    Show more